Location: Hains Lake
(37.8540°N, 99.8578°W)
Time: 09:05:20
(UTC+00:00)

Vanguard 1 - Pass Details

Date: 04 December 2021
Orbit: 652 x 3830 km, 34.2° (Epoch: 24 January)

Event Time Altitude Azimuth Distance (km) Brightness Sun altitude
Exits shadow 12:07:10 20° 276° (W) 5,585 13.2 -17.7°
Maximum altitude 12:21:15 51° 214° (SSW) 3,100 12.4 -15.1°
Drops below altitude 10° 12:32:34 10° 142° (SE) 4,094 14.1 -12.9°
Sets 12:35:15 0° 136° (SE) 4,753 14.8 -12.4°
